owner,sensor,date,latitude,longitude,vertical_datum,sea_water_practical_salinity,qcFlag 
NERRS,ioos:station:NOAA.NERRS:rkblhwq:1,2016-10-01T00:45:00Z,26.0257,-81.7332,0.56,15.5,1111122 
NERRS,ioos:station:NOAA.NERRS:rkblhwq:1,2016-10-01T01:45:00Z,26.0257,-81.7332,0.64,24.1,1111122 
NERRS,ioos:station:NOAA.NERRS:rkblhwq:1,2016-10-01T02:45:00Z,26.0257,-81.7332,0.79,23.2,1111122 
NERRS,ioos:station:NOAA.NERRS:rkblhwq:1,2016-10-01T03:45:00Z,26.0257,-81.7332,0.98,25.1,1111122 
NERRS,ioos:station:NOAA.NERRS:rkblhwq:1,2016-10-01T04:45:00Z,26.0257,-81.7332,1.12,26.6,1111122 
NERRS,ioos:station:NOAA.NERRS:rkblhwq:1,2016-10-01T06:45:00Z,26.0257,-81.7332,1.22,26.7,1111122 
NERRS,ioos:station:NOAA.NERRS:rkblhwq:1,2016-10-01T07:45:00Z,26.0257,-81.7332,1.11,26.9,1111122 
NERRS,ioos:station:NOAA.NERRS:rkblhwq:1,2016-10-01T08:45:00Z,26.0257,-81.7332,0.98,25.7,1111122 
NERRS,ioos:station:NOAA.NERRS:rkblhwq:1,2016-10-01T09:45:00Z,26.0257,-81.7332,0.84,23.8,1111122 
NERRS,ioos:station:NOAA.NERRS:rkblhwq:1,2016-10-01T10:45:00Z,26.0257,-81.7332,0.7,21.7,1111122 
NERRS,ioos:station:NOAA.NERRS:rkblhwq:1,2016-10-01T11:45:00Z,26.0257,-81.7332,0.58,17.9,1111122 
NERRS,ioos:station:NOAA.NERRS:rkblhwq:1,2016-10-01T12:45:00Z,26.0257,-81.7332,0.49,17.2,1111122 
NERRS,ioos:station:NOAA.NERRS:rkblhwq:1,2016-10-01T13:45:00Z,26.0257,-81.7332,0.52,21.0,1111122 
NERRS,ioos:station:NOAA.NERRS:rkblhwq:1,2016-10-01T14:45:00Z,26.0257,-81.7332,0.66,22.8,1111122 
NERRS,ioos:station:NOAA.NERRS:rkblhwq:1,2016-10-01T15:45:00Z,26.0257,-81.7332,0.81,24.0,1111122 
NERRS,ioos:station:NOAA.NERRS:rkblhwq:1,2016-10-01T16:45:00Z,26.0257,-81.7332,0.98,25.3,1111122 
NERRS,ioos:station:NOAA.NERRS:rkblhwq:1,2016-10-01T17:45:00Z,26.0257,-81.7332,1.11,26.2,1111122 
NERRS,ioos:station:NOAA.NERRS:rkblhwq:1,2016-10-01T18:45:00Z,26.0257,-81.7332,1.19,27.3,1111122 
NERRS,ioos:station:NOAA.NERRS:rkblhwq:1,2016-10-01T19:45:00Z,26.0257,-81.7332,1.16,25.5,1111122 
NERRS,ioos:station:NOAA.NERRS:rkblhwq:1,2016-10-01T20:45:00Z,26.0257,-81.7332,1.04,26.4,1111122 
NERRS,ioos:station:NOAA.NERRS:rkblhwq:1,2016-10-01T21:45:00Z,26.0257,-81.7332,0.91,25.5,1111122 
NERRS,ioos:station:NOAA.NERRS:rkblhwq:1,2016-10-01T22:45:00Z,26.0257,-81.7332,0.76,25.7,1111122 
NERRS,ioos:station:NOAA.NERRS:rkblhwq:1,2016-10-01T23:45:00Z,26.0257,-81.7332,0.65,23.2,1111122 
NERRS,ioos:station:NOAA.NERRS:rkblhwq:1,2016-10-02T00:45:00Z,26.0257,-81.7332,0.55,21.0,1111122 
NERRS,ioos:station:NOAA.NERRS:rkblhwq:1,2016-10-02T01:45:00Z,26.0257,-81.7332,0.57,22.3,1111122 
NERRS,ioos:station:NOAA.NERRS:rkblhwq:1,2016-10-02T02:45:00Z,26.0257,-81.7332,0.71,24.3,1111122 
NERRS,ioos:station:NOAA.NERRS:rkblhwq:1,2016-10-02T03:45:00Z,26.0257,-81.7332,0.86,24.9,1111122 
NERRS,ioos:station:NOAA.NERRS:rkblhwq:1,2016-10-02T04:45:00Z,26.0257,-81.7332,1.01,25.9,1111122 
NERRS,ioos:station:NOAA.NERRS:rkblhwq:1,2016-10-02T05:45:00Z,26.0257,-81.7332,1.12,26.8,1111122 
NERRS,ioos:station:NOAA.NERRS:rkblhwq:1,2016-10-02T06:45:00Z,26.0257,-81.7332,1.17,26.8,1111122 
NERRS,ioos:station:NOAA.NERRS:rkblhwq:1,2016-10-02T07:45:00Z,26.0257,-81.7332,1.13,25.8,1111122 
NERRS,ioos:station:NOAA.NERRS:rkblhwq:1,2016-10-02T08:45:00Z,26.0257,-81.7332,0.99,25.8,1111122 
NERRS,ioos:station:NOAA.NERRS:rkblhwq:1,2016-10-02T09:45:00Z,26.0257,-81.7332,0.84,25.2,1111122 
NERRS,ioos:station:NOAA.NERRS:rkblhwq:1,2016-10-02T10:45:00Z,26.0257,-81.7332,0.69,23.1,1111122 
NERRS,ioos:station:NOAA.NERRS:rkblhwq:1,2016-10-02T11:45:00Z,26.0257,-81.7332,0.56,21.2,1111122 
NERRS,ioos:station:NOAA.NERRS:rkblhwq:1,2016-10-02T12:45:00Z,26.0257,-81.7332,0.46,20.5,1111122 
NERRS,ioos:station:NOAA.NERRS:rkblhwq:1,2016-10-02T13:45:00Z,26.0257,-81.7332,0.43,19.3,1111122 
NERRS,ioos:station:NOAA.NERRS:rkblhwq:1,2016-10-02T14:45:00Z,26.0257,-81.7332,0.52,24.4,1111122 
NERRS,ioos:station:NOAA.NERRS:rkblhwq:1,2016-10-02T15:45:00Z,26.0257,-81.7332,0.66,22.8,1111122 
NERRS,ioos:station:NOAA.NERRS:rkblhwq:1,2016-10-02T16:45:00Z,26.0257,-81.7332,0.84,24.4,1111122 
NERRS,ioos:station:NOAA.NERRS:rkblhwq:1,2016-10-02T17:45:00Z,26.0257,-81.7332,1.0,25.5,1111122 
NERRS,ioos:station:NOAA.NERRS:rkblhwq:1,2016-10-02T18:45:00Z,26.0257,-81.7332,1.13,26.2,1111122 
NERRS,ioos:station:NOAA.NERRS:rkblhwq:1,2016-10-02T19:45:00Z,26.0257,-81.7332,1.19,26.8,1111122 
NERRS,ioos:station:NOAA.NERRS:rkblhwq:1,2016-10-02T20:45:00Z,26.0257,-81.7332,1.13,25.8,1111122 
NERRS,ioos:station:NOAA.NERRS:rkblhwq:1,2016-10-02T21:45:00Z,26.0257,-81.7332,0.99,26.6,1111122 
NERRS,ioos:station:NOAA.NERRS:rkblhwq:1,2016-10-02T22:45:00Z,26.0257,-81.7332,0.85,24.1,1111122 
NERRS,ioos:station:NOAA.NERRS:rkblhwq:1,2016-10-02T23:45:00Z,26.0257,-81.7332,0.73,23.5,1111122 
NERRS,ioos:station:NOAA.NERRS:rkblhwq:1,2016-10-03T01:45:00Z,26.0257,-81.7332,0.53,20.3,1111122 
NERRS,ioos:station:NOAA.NERRS:rkblhwq:1,2016-10-03T02:45:00Z,26.0257,-81.7332,0.58,22.0,1111122 
NERRS,ioos:station:NOAA.NERRS:rkblhwq:1,2016-10-03T03:45:00Z,26.0257,-81.7332,0.71,22.9,1111122 
NERRS,ioos:station:NOAA.NERRS:rkblhwq:1,2016-10-03T04:45:00Z,26.0257,-81.7332,0.84,24.1,1111122 
NERRS,ioos:station:NOAA.NERRS:rkblhwq:1,2016-10-03T05:45:00Z,26.0257,-81.7332,0.98,25.4,1111122 
NERRS,ioos:station:NOAA.NERRS:rkblhwq:1,2016-10-03T06:45:00Z,26.0257,-81.7332,1.09,26.3,1111122 
NERRS,ioos:station:NOAA.NERRS:rkblhwq:1,2016-10-03T07:45:00Z,26.0257,-81.7332,1.11,26.0,1111122 
NERRS,ioos:station:NOAA.NERRS:rkblhwq:1,2016-10-03T08:45:00Z,26.0257,-81.7332,1.01,26.1,1111122 
NERRS,ioos:station:NOAA.NERRS:rkblhwq:1,2016-10-03T09:45:00Z,26.0257,-81.7332,0.89,25.3,1111122 
NERRS,ioos:station:NOAA.NERRS:rkblhwq:1,2016-10-03T10:45:00Z,26.0257,-81.7332,0.74,22.6,1111122 
NERRS,ioos:station:NOAA.NERRS:rkblhwq:1,2016-10-03T11:45:00Z,26.0257,-81.7332,0.6,22.4,1111122 
NERRS,ioos:station:NOAA.NERRS:rkblhwq:1,2016-10-03T12:45:00Z,26.0257,-81.7332,0.49,21.0,1111122 
NERRS,ioos:station:NOAA.NERRS:rkblhwq:1,2016-10-03T13:45:00Z,26.0257,-81.7332,0.4,20.2,1111122 
NERRS,ioos:station:NOAA.NERRS:rkblhwq:1,2016-10-03T14:45:00Z,26.0257,-81.7332,0.43,20.6,1111122 
NERRS,ioos:station:NOAA.NERRS:rkblhwq:1,2016-10-03T15:45:00Z,26.0257,-81.7332,0.55,23.1,1111122 
NERRS,ioos:station:NOAA.NERRS:rkblhwq:1,2016-10-03T16:45:00Z,26.0257,-81.7332,0.7,23.5,1111122 
NERRS,ioos:station:NOAA.NERRS:rkblhwq:1,2016-10-03T17:45:00Z,26.0257,-81.7332,0.88,24.9,1111122 
NERRS,ioos:station:NOAA.NERRS:rkblhwq:1,2016-10-03T18:45:00Z,26.0257,-81.7332,1.05,26.1,1111122 
NERRS,ioos:station:NOAA.NERRS:rkblhwq:1,2016-10-03T19:45:00Z,26.0257,-81.7332,1.16,27.2,1111122 
NERRS,ioos:station:NOAA.NERRS:rkblhwq:1,2016-10-03T20:45:00Z,26.0257,-81.7332,1.16,26.1,1111122 
NERRS,ioos:station:NOAA.NERRS:rkblhwq:1,2016-10-03T21:45:00Z,26.0257,-81.7332,1.09,25.2,1111122 
NERRS,ioos:station:NOAA.NERRS:rkblhwq:1,2016-10-03T22:45:00Z,26.0257,-81.7332,1.01,23.5,1111122 
NERRS,ioos:station:NOAA.NERRS:rkblhwq:1,2016-10-03T23:45:00Z,26.0257,-81.7332,0.89,22.2,1111122 
NERRS,ioos:station:NOAA.NERRS:rkblhwq:1,2016-10-04T00:45:00Z,26.0257,-81.7332,0.75,22.7,1111122 
NERRS,ioos:station:NOAA.NERRS:rkblhwq:1,2016-10-04T01:45:00Z,26.0257,-81.7332,0.63,21.7,1111122 
NERRS,ioos:station:NOAA.NERRS:rkblhwq:1,2016-10-04T02:45:00Z,26.0257,-81.7332,0.58,18.0,1111122 
NERRS,ioos:station:NOAA.NERRS:rkblhwq:1,2016-10-04T03:45:00Z,26.0257,-81.7332,0.7,23.9,1111122 
NERRS,ioos:station:NOAA.NERRS:rkblhwq:1,2016-10-04T04:45:00Z,26.0257,-81.7332,0.82,22.7,1111122 
NERRS,ioos:station:NOAA.NERRS:rkblhwq:1,2016-10-04T05:45:00Z,26.0257,-81.7332,0.97,23.7,1111122 
NERRS,ioos:station:NOAA.NERRS:rkblhwq:1,2016-10-04T06:45:00Z,26.0257,-81.7332,1.07,26.0,1111122 
NERRS,ioos:station:NOAA.NERRS:rkblhwq:1,2016-10-04T07:45:00Z,26.0257,-81.7332,1.14,26.3,1111122 
NERRS,ioos:station:NOAA.NERRS:rkblhwq:1,2016-10-04T08:45:00Z,26.0257,-81.7332,1.1,23.7,1111122 
NERRS,ioos:station:NOAA.NERRS:rkblhwq:1,2016-10-04T09:45:00Z,26.0257,-81.7332,0.99,23.6,1111122 
NERRS,ioos:station:NOAA.NERRS:rkblhwq:1,2016-10-04T10:45:00Z,26.0257,-81.7332,0.86,24.3,1111122 
NERRS,ioos:station:NOAA.NERRS:rkblhwq:1,2016-10-04T11:45:00Z,26.0257,-81.7332,0.72,22.3,1111122 
NERRS,ioos:station:NOAA.NERRS:rkblhwq:1,2016-10-04T12:45:00Z,26.0257,-81.7332,0.59,17.7,1111122 
NERRS,ioos:station:NOAA.NERRS:rkblhwq:1,2016-10-04T13:45:00Z,26.0257,-81.7332,0.48,16.4,1111122 
NERRS,ioos:station:NOAA.NERRS:rkblhwq:1,2016-10-04T14:45:00Z,26.0257,-81.7332,0.44,14.7,1111122 
NERRS,ioos:station:NOAA.NERRS:rkblhwq:1,2016-10-04T15:45:00Z,26.0257,-81.7332,0.54,23.6,1111122 
NERRS,ioos:station:NOAA.NERRS:rkblhwq:1,2016-10-04T16:45:00Z,26.0257,-81.7332,0.68,21.8,1111122 
NERRS,ioos:station:NOAA.NERRS:rkblhwq:1,2016-10-04T17:45:00Z,26.0257,-81.7332,0.83,23.1,1111122 
NERRS,ioos:station:NOAA.NERRS:rkblhwq:1,2016-10-04T18:45:00Z,26.0257,-81.7332,0.98,24.2,1111122 
NERRS,ioos:station:NOAA.NERRS:rkblhwq:1,2016-10-04T19:45:00Z,26.0257,-81.7332,1.1,24.4,1111122 
NERRS,ioos:station:NOAA.NERRS:rkblhwq:1,2016-10-04T20:45:00Z,26.0257,-81.7332,1.16,24.8,1111122 
NERRS,ioos:station:NOAA.NERRS:rkblhwq:1,2016-10-04T21:45:00Z,26.0257,-81.7332,1.13,24.9,1111122 
NERRS,ioos:station:NOAA.NERRS:rkblhwq:1,2016-10-04T22:45:00Z,26.0257,-81.7332,1.06,24.7,1111122 
NERRS,ioos:station:NOAA.NERRS:rkblhwq:1,2016-10-04T23:45:00Z,26.0257,-81.7332,0.97,24.5,1111122 
NERRS,ioos:station:NOAA.NERRS:rkblhwq:1,2016-10-05T00:45:00Z,26.0257,-81.7332,0.88,18.3,1111122 
NERRS,ioos:station:NOAA.NERRS:rkblhwq:1,2016-10-05T01:45:00Z,26.0257,-81.7332,0.78,20.6,1111122 
NERRS,ioos:station:NOAA.NERRS:rkblhwq:1,2016-10-05T02:45:00Z,26.0257,-81.7332,0.73,20.9,1111122 
NERRS,ioos:station:NOAA.NERRS:rkblhwq:1,2016-10-05T03:45:00Z,26.0257,-81.7332,0.8,22.4,1111122 
NERRS,ioos:station:NOAA.NERRS:rkblhwq:1,2016-10-05T04:45:00Z,26.0257,-81.7332,0.9,21.9,1111122 
NERRS,ioos:station:NOAA.NERRS:rkblhwq:1,2016-10-05T05:45:00Z,26.0257,-81.7332,1.0,23.9,1111122 
NERRS,ioos:station:NOAA.NERRS:rkblhwq:1,2016-10-05T06:45:00Z,26.0257,-81.7332,1.12,25.3,1111122 
NERRS,ioos:station:NOAA.NERRS:rkblhwq:1,2016-10-05T07:45:00Z,26.0257,-81.7332,1.18,24.5,1111122 
NERRS,ioos:station:NOAA.NERRS:rkblhwq:1,2016-10-05T08:45:00Z,26.0257,-81.7332,1.19,25.5,1111122 
NERRS,ioos:station:NOAA.NERRS:rkblhwq:1,2016-10-05T09:45:00Z,26.0257,-81.7332,1.1,23.7,1111122 
NERRS,ioos:station:NOAA.NERRS:rkblhwq:1,2016-10-05T10:45:00Z,26.0257,-81.7332,0.96,23.9,1111122 
NERRS,ioos:station:NOAA.NERRS:rkblhwq:1,2016-10-05T11:45:00Z,26.0257,-81.7332,0.82,24.0,1111122 
NERRS,ioos:station:NOAA.NERRS:rkblhwq:1,2016-10-05T12:45:00Z,26.0257,-81.7332,0.68,20.0,1111122 
NERRS,ioos:station:NOAA.NERRS:rkblhwq:1,2016-10-05T13:45:00Z,26.0257,-81.7332,0.55,16.5,1111122 
NERRS,ioos:station:NOAA.NERRS:rkblhwq:1,2016-10-05T14:45:00Z,26.0257,-81.7332,0.46,15.8,1111122 
NERRS,ioos:station:NOAA.NERRS:rkblhwq:1,2016-10-05T15:45:00Z,26.0257,-81.7332,0.44,14.4,1111122 
NERRS,ioos:station:NOAA.NERRS:rkblhwq:1,2016-10-05T16:45:00Z,26.0257,-81.7332,0.53,23.4,1111122 
NERRS,ioos:station:NOAA.NERRS:rkblhwq:1,2016-10-05T17:45:00Z,26.0257,-81.7332,0.65,20.8,1111122 
NERRS,ioos:station:NOAA.NERRS:rkblhwq:1,2016-10-05T18:45:00Z,26.0257,-81.7332,0.78,22.5,1111122 
NERRS,ioos:station:NOAA.NERRS:rkblhwq:1,2016-10-05T19:45:00Z,26.0257,-81.7332,0.92,23.5,1111122 
NERRS,ioos:station:NOAA.NERRS:rkblhwq:1,2016-10-05T20:45:00Z,26.0257,-81.7332,1.01,24.2,1111122 
NERRS,ioos:station:NOAA.NERRS:rkblhwq:1,2016-10-05T21:45:00Z,26.0257,-81.7332,1.06,23.9,1111122 
NERRS,ioos:station:NOAA.NERRS:rkblhwq:1,2016-10-05T22:45:00Z,26.0257,-81.7332,1.03,21.4,1111122 
NERRS,ioos:station:NOAA.NERRS:rkblhwq:1,2016-10-05T23:45:00Z,26.0257,-81.7332,0.95,17.7,1111122 
NERRS,ioos:station:NOAA.NERRS:rkblhwq:1,2016-10-06T00:45:00Z,26.0257,-81.7332,0.85,16.5,1111122 
NERRS,ioos:station:NOAA.NERRS:rkblhwq:1,2016-10-06T01:45:00Z,26.0257,-81.7332,0.76,16.8,1111122 
NERRS,ioos:station:NOAA.NERRS:rkblhwq:1,2016-10-06T02:45:00Z,26.0257,-81.7332,0.7,16.2,1111122 
NERRS,ioos:station:NOAA.NERRS:rkblhwq:1,2016-10-06T03:45:00Z,26.0257,-81.7332,0.72,18.9,1111122 
NERRS,ioos:station:NOAA.NERRS:rkblhwq:1,2016-10-06T04:45:00Z,26.0257,-81.7332,0.8,23.7,1111122 
NERRS,ioos:station:NOAA.NERRS:rkblhwq:1,2016-10-06T05:45:00Z,26.0257,-81.7332,0.89,22.5,1111122 
NERRS,ioos:station:NOAA.NERRS:rkblhwq:1,2016-10-06T06:45:00Z,26.0257,-81.7332,0.99,24.3,1111122 
NERRS,ioos:station:NOAA.NERRS:rkblhwq:1,2016-10-06T07:45:00Z,26.0257,-81.7332,1.08,25.6,1111122 
NERRS,ioos:station:NOAA.NERRS:rkblhwq:1,2016-10-06T08:45:00Z,26.0257,-81.7332,1.13,24.1,1111122 
NERRS,ioos:station:NOAA.NERRS:rkblhwq:1,2016-10-06T09:45:00Z,26.0257,-81.7332,1.1,23.3,1111122 
NERRS,ioos:station:NOAA.NERRS:rkblhwq:1,2016-10-06T10:45:00Z,26.0257,-81.7332,1.0,17.4,1111122 
NERRS,ioos:station:NOAA.NERRS:rkblhwq:1,2016-10-06T11:45:00Z,26.0257,-81.7332,0.87,17.7,1111122 
NERRS,ioos:station:NOAA.NERRS:rkblhwq:1,2016-10-06T12:45:00Z,26.0257,-81.7332,0.73,20.4,1111122 
NERRS,ioos:station:NOAA.NERRS:rkblhwq:1,2016-10-06T13:45:00Z,26.0257,-81.7332,0.61,18.9,1111122 
NERRS,ioos:station:NOAA.NERRS:rkblhwq:1,2016-10-06T14:45:00Z,26.0257,-81.7332,0.5,18.5,1111122 
NERRS,ioos:station:NOAA.NERRS:rkblhwq:1,2016-10-06T15:45:00Z,26.0257,-81.7332,0.42,18.1,1111122 
NERRS,ioos:station:NOAA.NERRS:rkblhwq:1,2016-10-06T16:45:00Z,26.0257,-81.7332,0.42,17.8,1111122 
NERRS,ioos:station:NOAA.NERRS:rkblhwq:1,2016-10-06T17:45:00Z,26.0257,-81.7332,0.49,22.0,1111122 
NERRS,ioos:station:NOAA.NERRS:rkblhwq:1,2016-10-06T18:45:00Z,26.0257,-81.7332,0.6,21.0,1111122 
NERRS,ioos:station:NOAA.NERRS:rkblhwq:1,2016-10-06T19:45:00Z,26.0257,-81.7332,0.73,21.6,1111122 
NERRS,ioos:station:NOAA.NERRS:rkblhwq:1,2016-10-06T20:45:00Z,26.0257,-81.7332,0.88,22.9,1111122 
NERRS,ioos:station:NOAA.NERRS:rkblhwq:1,2016-10-06T21:45:00Z,26.0257,-81.7332,0.95,24.3,1111122 
NERRS,ioos:station:NOAA.NERRS:rkblhwq:1,2016-10-06T22:45:00Z,26.0257,-81.7332,0.95,23.7,1111122 
NERRS,ioos:station:NOAA.NERRS:rkblhwq:1,2016-10-06T23:45:00Z,26.0257,-81.7332,0.9,20.2,1111122 
NERRS,ioos:station:NOAA.NERRS:rkblhwq:1,2016-10-07T00:45:00Z,26.0257,-81.7332,0.83,20.1,1111122 
NERRS,ioos:station:NOAA.NERRS:rkblhwq:1,2016-10-07T01:45:00Z,26.0257,-81.7332,0.74,20.4,1111122 
NERRS,ioos:station:NOAA.NERRS:rkblhwq:1,2016-10-07T02:45:00Z,26.0257,-81.7332,0.71,18.1,1111122 
NERRS,ioos:station:NOAA.NERRS:rkblhwq:1,2016-10-07T03:45:00Z,26.0257,-81.7332,0.72,20.7,1111122 
NERRS,ioos:station:NOAA.NERRS:rkblhwq:1,2016-10-07T04:45:00Z,26.0257,-81.7332,0.78,21.3,1111122 
NERRS,ioos:station:NOAA.NERRS:rkblhwq:1,2016-10-07T05:45:00Z,26.0257,-81.7332,0.86,22.8,1111122 
NERRS,ioos:station:NOAA.NERRS:rkblhwq:1,2016-10-07T06:45:00Z,26.0257,-81.7332,0.96,23.0,1111122 
NERRS,ioos:station:NOAA.NERRS:rkblhwq:1,2016-10-07T07:45:00Z,26.0257,-81.7332,1.08,23.7,1111122 
NERRS,ioos:station:NOAA.NERRS:rkblhwq:1,2016-10-07T08:45:00Z,26.0257,-81.7332,1.15,27.0,1111122 
NERRS,ioos:station:NOAA.NERRS:rkblhwq:1,2016-10-07T09:45:00Z,26.0257,-81.7332,1.17,26.2,1111122 
NERRS,ioos:station:NOAA.NERRS:rkblhwq:1,2016-10-07T10:45:00Z,26.0257,-81.7332,1.12,24.1,1111122 
NERRS,ioos:station:NOAA.NERRS:rkblhwq:1,2016-10-07T11:45:00Z,26.0257,-81.7332,1.06,23.6,1111122 
NERRS,ioos:station:NOAA.NERRS:rkblhwq:1,2016-10-07T12:45:00Z,26.0257,-81.7332,0.97,24.0,1111122 
NERRS,ioos:station:NOAA.NERRS:rkblhwq:1,2016-10-07T13:45:00Z,26.0257,-81.7332,0.86,22.6,1111122 
NERRS,ioos:station:NOAA.NERRS:rkblhwq:1,2016-10-07T14:45:00Z,26.0257,-81.7332,0.74,21.9,1111122 
NERRS,ioos:station:NOAA.NERRS:rkblhwq:1,2016-10-07T15:45:00Z,26.0257,-81.7332,0.66,20.9,1111122 
NERRS,ioos:station:NOAA.NERRS:rkblhwq:1,2016-10-07T17:45:00Z,26.0257,-81.7332,0.64,20.5,1111122 
NERRS,ioos:station:NOAA.NERRS:rkblhwq:1,2016-10-07T18:45:00Z,26.0257,-81.7332,0.68,20.9,1111122 
NERRS,ioos:station:NOAA.NERRS:rkblhwq:1,2016-10-07T19:45:00Z,26.0257,-81.7332,0.77,22.3,1111122 
NERRS,ioos:station:NOAA.NERRS:rkblhwq:1,2016-10-07T20:45:00Z,26.0257,-81.7332,0.88,22.2,1111122 
NERRS,ioos:station:NOAA.NERRS:rkblhwq:1,2016-10-07T21:45:00Z,26.0257,-81.7332,0.98,22.3,1111122 
NERRS,ioos:station:NOAA.NERRS:rkblhwq:1,2016-10-07T22:45:00Z,26.0257,-81.7332,1.05,23.2,1111122 
NERRS,ioos:station:NOAA.NERRS:rkblhwq:1,2016-10-07T23:45:00Z,26.0257,-81.7332,1.07,24.2,1111122 
NERRS,ioos:station:NOAA.NERRS:rkblhwq:1,2016-10-08T00:45:00Z,26.0257,-81.7332,1.03,22.7,1111122 
NERRS,ioos:station:NOAA.NERRS:rkblhwq:1,2016-10-08T01:45:00Z,26.0257,-81.7332,0.97,21.9,1111122 
NERRS,ioos:station:NOAA.NERRS:rkblhwq:1,2016-10-08T02:45:00Z,26.0257,-81.7332,0.9,20.4,1111122 
NERRS,ioos:station:NOAA.NERRS:rkblhwq:1,2016-10-08T03:45:00Z,26.0257,-81.7332,0.88,21.0,1111122 
NERRS,ioos:station:NOAA.NERRS:rkblhwq:1,2016-10-08T04:45:00Z,26.0257,-81.7332,0.86,20.7,1111122 
NERRS,ioos:station:NOAA.NERRS:rkblhwq:1,2016-10-08T05:45:00Z,26.0257,-81.7332,0.91,21.8,1111122 
NERRS,ioos:station:NOAA.NERRS:rkblhwq:1,2016-10-08T06:45:00Z,26.0257,-81.7332,0.98,21.7,1111122 
NERRS,ioos:station:NOAA.NERRS:rkblhwq:1,2016-10-08T07:45:00Z,26.0257,-81.7332,1.06,22.4,1111122 
NERRS,ioos:station:NOAA.NERRS:rkblhwq:1,2016-10-08T08:45:00Z,26.0257,-81.7332,1.13,23.4,1111122 
NERRS,ioos:station:NOAA.NERRS:rkblhwq:1,2016-10-08T09:45:00Z,26.0257,-81.7332,1.17,23.3,1111122 
NERRS,ioos:station:NOAA.NERRS:rkblhwq:1,2016-10-08T10:45:00Z,26.0257,-81.7332,1.18,24.8,1111122 
NERRS,ioos:station:NOAA.NERRS:rkblhwq:1,2016-10-08T11:45:00Z,26.0257,-81.7332,1.12,22.7,1111122 
NERRS,ioos:station:NOAA.NERRS:rkblhwq:1,2016-10-08T12:45:00Z,26.0257,-81.7332,1.02,22.3,1111122 
NERRS,ioos:station:NOAA.NERRS:rkblhwq:1,2016-10-08T13:45:00Z,26.0257,-81.7332,0.92,21.1,1111122 
NERRS,ioos:station:NOAA.NERRS:rkblhwq:1,2016-10-08T14:45:00Z,26.0257,-81.7332,0.81,19.6,1111122 
NERRS,ioos:station:NOAA.NERRS:rkblhwq:1,2016-10-08T15:45:00Z,26.0257,-81.7332,0.7,17.1,1111122 
NERRS,ioos:station:NOAA.NERRS:rkblhwq:1,2016-10-08T16:45:00Z,26.0257,-81.7332,0.62,19.3,1111122 
NERRS,ioos:station:NOAA.NERRS:rkblhwq:1,2016-10-08T17:45:00Z,26.0257,-81.7332,0.58,19.3,1111122 
NERRS,ioos:station:NOAA.NERRS:rkblhwq:1,2016-10-08T18:45:00Z,26.0257,-81.7332,0.58,20.6,1111122 
NERRS,ioos:station:NOAA.NERRS:rkblhwq:1,2016-10-08T19:45:00Z,26.0257,-81.7332,0.67,18.5,1111122 
NERRS,ioos:station:NOAA.NERRS:rkblhwq:1,2016-10-08T20:45:00Z,26.0257,-81.7332,0.78,19.6,1111122 
NERRS,ioos:station:NOAA.NERRS:rkblhwq:1,2016-10-08T21:45:00Z,26.0257,-81.7332,0.88,23.0,1111122 
NERRS,ioos:station:NOAA.NERRS:rkblhwq:1,2016-10-08T22:45:00Z,26.0257,-81.7332,0.98,23.5,1111122 
NERRS,ioos:station:NOAA.NERRS:rkblhwq:1,2016-10-08T23:45:00Z,26.0257,-81.7332,1.03,22.7,1111122 
NERRS,ioos:station:NOAA.NERRS:rkblhwq:1,2016-10-09T00:45:00Z,26.0257,-81.7332,1.07,23.2,1111122 
NERRS,ioos:station:NOAA.NERRS:rkblhwq:1,2016-10-09T01:45:00Z,26.0257,-81.7332,1.06,23.5,1111122 
NERRS,ioos:station:NOAA.NERRS:rkblhwq:1,2016-10-09T02:45:00Z,26.0257,-81.7332,1.02,22.3,1111122 
NERRS,ioos:station:NOAA.NERRS:rkblhwq:1,2016-10-09T03:45:00Z,26.0257,-81.7332,0.98,22.8,1111122 
NERRS,ioos:station:NOAA.NERRS:rkblhwq:1,2016-10-09T04:45:00Z,26.0257,-81.7332,0.94,22.2,1111122 
NERRS,ioos:station:NOAA.NERRS:rkblhwq:1,2016-10-09T05:45:00Z,26.0257,-81.7332,0.91,20.9,1111122 
NERRS,ioos:station:NOAA.NERRS:rkblhwq:1,2016-10-09T06:45:00Z,26.0257,-81.7332,0.9,23.4,1111122 
NERRS,ioos:station:NOAA.NERRS:rkblhwq:1,2016-10-09T07:45:00Z,26.0257,-81.7332,0.94,23.6,1111122 
NERRS,ioos:station:NOAA.NERRS:rkblhwq:1,2016-10-09T08:45:00Z,26.0257,-81.7332,1.02,21.6,1111122 
NERRS,ioos:station:NOAA.NERRS:rkblhwq:1,2016-10-09T09:45:00Z,26.0257,-81.7332,1.09,23.5,1111122 
NERRS,ioos:station:NOAA.NERRS:rkblhwq:1,2016-10-09T10:45:00Z,26.0257,-81.7332,1.14,24.4,1111122 
NERRS,ioos:station:NOAA.NERRS:rkblhwq:1,2016-10-09T11:45:00Z,26.0257,-81.7332,1.12,24.0,1111122 
NERRS,ioos:station:NOAA.NERRS:rkblhwq:1,2016-10-09T12:45:00Z,26.0257,-81.7332,1.04,22.8,1111122 
NERRS,ioos:station:NOAA.NERRS:rkblhwq:1,2016-10-09T13:45:00Z,26.0257,-81.7332,0.94,21.0,1111122 
NERRS,ioos:station:NOAA.NERRS:rkblhwq:1,2016-10-09T14:45:00Z,26.0257,-81.7332,0.84,16.9,1111122 
NERRS,ioos:station:NOAA.NERRS:rkblhwq:1,2016-10-09T15:45:00Z,26.0257,-81.7332,0.72,15.5,1111122 
NERRS,ioos:station:NOAA.NERRS:rkblhwq:1,2016-10-09T16:45:00Z,26.0257,-81.7332,0.59,17.1,1111122 
NERRS,ioos:station:NOAA.NERRS:rkblhwq:1,2016-10-09T17:45:00Z,26.0257,-81.7332,0.5,18.0,1111122 
NERRS,ioos:station:NOAA.NERRS:rkblhwq:1,2016-10-09T18:45:00Z,26.0257,-81.7332,0.46,18.2,1111122 
NERRS,ioos:station:NOAA.NERRS:rkblhwq:1,2016-10-09T19:45:00Z,26.0257,-81.7332,0.49,19.3,1111122 
NERRS,ioos:station:NOAA.NERRS:rkblhwq:1,2016-10-09T20:45:00Z,26.0257,-81.7332,0.57,21.2,1111122 
NERRS,ioos:station:NOAA.NERRS:rkblhwq:1,2016-10-09T21:45:00Z,26.0257,-81.7332,0.67,20.7,1111122 
NERRS,ioos:station:NOAA.NERRS:rkblhwq:1,2016-10-09T22:45:00Z,26.0257,-81.7332,0.78,21.4,1111122 
NERRS,ioos:station:NOAA.NERRS:rkblhwq:1,2016-10-09T23:45:00Z,26.0257,-81.7332,0.9,22.3,1111122 
NERRS,ioos:station:NOAA.NERRS:rkblhwq:1,2016-10-10T00:45:00Z,26.0257,-81.7332,1.01,23.6,1111122 
NERRS,ioos:station:NOAA.NERRS:rkblhwq:1,2016-10-10T01:45:00Z,26.0257,-81.7332,1.08,23.8,1111122 
NERRS,ioos:station:NOAA.NERRS:rkblhwq:1,2016-10-10T02:45:00Z,26.0257,-81.7332,1.05,20.4,1111122 
NERRS,ioos:station:NOAA.NERRS:rkblhwq:1,2016-10-10T03:45:00Z,26.0257,-81.7332,0.97,19.7,1111122 
NERRS,ioos:station:NOAA.NERRS:rkblhwq:1,2016-10-10T04:45:00Z,26.0257,-81.7332,0.88,20.1,1111122 
NERRS,ioos:station:NOAA.NERRS:rkblhwq:1,2016-10-10T05:45:00Z,26.0257,-81.7332,0.79,18.7,1111122 
NERRS,ioos:station:NOAA.NERRS:rkblhwq:1,2016-10-10T06:45:00Z,26.0257,-81.7332,0.72,18.6,1111122 
NERRS,ioos:station:NOAA.NERRS:rkblhwq:1,2016-10-10T07:45:00Z,26.0257,-81.7332,0.69,18.1,1111122 
NERRS,ioos:station:NOAA.NERRS:rkblhwq:1,2016-10-10T08:45:00Z,26.0257,-81.7332,0.73,19.6,1111122 
NERRS,ioos:station:NOAA.NERRS:rkblhwq:1,2016-10-10T09:45:00Z,26.0257,-81.7332,0.8,22.6,1111122 
NERRS,ioos:station:NOAA.NERRS:rkblhwq:1,2016-10-10T10:45:00Z,26.0257,-81.7332,0.88,22.0,1111122 
NERRS,ioos:station:NOAA.NERRS:rkblhwq:1,2016-10-10T11:45:00Z,26.0257,-81.7332,0.96,23.4,1111122 
NERRS,ioos:station:NOAA.NERRS:rkblhwq:1,2016-10-10T12:45:00Z,26.0257,-81.7332,1.06,23.1,1111122 
NERRS,ioos:station:NOAA.NERRS:rkblhwq:1,2016-10-10T13:45:00Z,26.0257,-81.7332,1.09,23.7,1111122 
NERRS,ioos:station:NOAA.NERRS:rkblhwq:1,2016-10-10T14:45:00Z,26.0257,-81.7332,1.04,19.4,1111122 
NERRS,ioos:station:NOAA.NERRS:rkblhwq:1,2016-10-10T15:45:00Z,26.0257,-81.7332,0.92,20.0,1111122 
NERRS,ioos:station:NOAA.NERRS:rkblhwq:1,2016-10-10T16:45:00Z,26.0257,-81.7332,0.8,19.5,1111122 
NERRS,ioos:station:NOAA.NERRS:rkblhwq:1,2016-10-10T17:45:00Z,26.0257,-81.7332,0.69,19.5,1111122 
NERRS,ioos:station:NOAA.NERRS:rkblhwq:1,2016-10-10T18:45:00Z,26.0257,-81.7332,0.61,19.6,1111122 
NERRS,ioos:station:NOAA.NERRS:rkblhwq:1,2016-10-10T19:45:00Z,26.0257,-81.7332,0.55,19.4,1111122 
NERRS,ioos:station:NOAA.NERRS:rkblhwq:1,2016-10-10T20:45:00Z,26.0257,-81.7332,0.55,19.2,1111122 
NERRS,ioos:station:NOAA.NERRS:rkblhwq:1,2016-10-10T21:45:00Z,26.0257,-81.7332,0.62,22.2,1111122 
NERRS,ioos:station:NOAA.NERRS:rkblhwq:1,2016-10-10T22:45:00Z,26.0257,-81.7332,0.71,21.4,1111122 
NERRS,ioos:station:NOAA.NERRS:rkblhwq:1,2016-10-10T23:45:00Z,26.0257,-81.7332,0.82,22.1,1111122 
NERRS,ioos:station:NOAA.NERRS:rkblhwq:1,2016-10-11T00:45:00Z,26.0257,-81.7332,0.95,23.1,1111122 
NERRS,ioos:station:NOAA.NERRS:rkblhwq:1,2016-10-11T01:45:00Z,26.0257,-81.7332,1.05,24.7,1111122 
NERRS,ioos:station:NOAA.NERRS:rkblhwq:1,2016-10-11T02:45:00Z,26.0257,-81.7332,1.1,24.2,1111122 
NERRS,ioos:station:NOAA.NERRS:rkblhwq:1,2016-10-11T03:45:00Z,26.0257,-81.7332,1.08,23.4,1111122 
NERRS,ioos:station:NOAA.NERRS:rkblhwq:1,2016-10-11T04:45:00Z,26.0257,-81.7332,1.01,22.3,1111122 
NERRS,ioos:station:NOAA.NERRS:rkblhwq:1,2016-10-11T05:45:00Z,26.0257,-81.7332,0.93,21.0,1111122 
NERRS,ioos:station:NOAA.NERRS:rkblhwq:1,2016-10-11T06:45:00Z,26.0257,-81.7332,0.88,20.4,1111122 
NERRS,ioos:station:NOAA.NERRS:rkblhwq:1,2016-10-11T07:45:00Z,26.0257,-81.7332,0.83,19.0,1111122 
NERRS,ioos:station:NOAA.NERRS:rkblhwq:1,2016-10-11T08:45:00Z,26.0257,-81.7332,0.8,18.8,1111122 